Date String (YYYY-MM-DD hh:mm:ss) UTC,Instrument flags,Ambient pressure (hPa),Sample flow (lpm),Bypass flow (lpm),Sample temperature (°C),Ambient temperature (°C),ASC tube jacket temperature (°C),LED temperature (°C),Box temperature (°C),Sample RH (%),Span deviation,Mass concentration (μg/m³),Mass concentration (μg/m³),Mass concentration (μg/m³)
DateTimeUTC,F1_M11,P_M11,Q1_M11,Q2_M11,T1_M11,T2_M11,T3_M11,T4_M11,T5_M11,U1_M11,ZSPAN_M11,X0_M11,X2_M11,X1_M11
2022-12-08 09:00:00,,0823.2,4.99,0.00,22.2,20.9,00.0,31.0,23.9,12.1,0000.0,0010.85,0005.04,0004.31
2022-12-08 09:01:00,,0823.1,5.00,0.00,22.1,20.8,00.0,31.0,23.9,12.1,0000.0,0010.35,0004.95,0004.26
2022-12-08 09:02:00,,0823.1,5.01,0.00,22.1,20.8,00.0,31.0,23.9,12.2,0000.0,0010.65,0004.88,0004.26
2022-12-08 09:03:00,,0823.1,5.00,0.00,22.1,20.7,00.0,31.0,23.9,12.3,0000.0,0010.20,0004.85,0004.24
2022-12-08 09:04:00,,0823.1,5.00,0.00,22.1,20.6,00.0,31.0,23.9,12.3,0000.0,0010.14,0004.85,0004.24
2022-12-08 09:05:00,,0823.1,5.00,0.00,22.1,20.6,00.0,31.0,23.8,12.3,0000.0,0010.24,0004.91,0004.25
2022-12-08 09:06:00,,0823.0,4.99,0.00,22.0,20.6,00.0,31.0,23.8,12.3,0000.0,0010.43,0004.95,0004.25
2022-12-08 09:07:00,,0823.1,5.00,0.00,22.0,20.5,00.0,31.0,23.8,12.3,0000.0,0010.62,0004.95,0004.25
2022-12-08 09:08:00,,0823.1,4.99,0.00,22.0,20.5,00.0,31.0,23.7,12.3,0000.0,0010.14,0004.93,0004.26
2022-12-08 09:09:00,,0823.1,4.99,0.00,22.0,20.5,00.0,31.0,23.7,12.3,0000.0,0009.99,0004.93,0004.25
2022-12-08 09:10:00,,0823.2,5.00,0.00,22.0,20.5,00.0,31.0,23.7,12.3,0000.0,0010.13,0004.91,0004.22
2022-12-08 09:11:00,,0823.2,5.01,0.00,22.0,20.5,00.0,31.0,23.7,12.4,0000.0,0010.24,0004.83,0004.15
2022-12-08 09:12:00,,0823.2,5.00,0.00,21.9,20.5,00.0,31.0,23.7,12.3,0000.0,0009.97,0004.77,0004.09
2022-12-08 09:13:00,,0823.2,5.00,0.00,21.9,20.4,00.0,31.0,23.7,12.3,0000.0,0009.35,0004.74,0004.04
2022-12-08 09:14:00,,0823.2,5.00,0.00,21.9,20.4,00.0,30.9,23.6,12.3,0000.0,0009.44,0004.69,0004.00
2022-12-08 09:15:00,,0823.2,5.00,0.00,21.9,20.4,00.0,30.9,23.6,12.3,0000.0,0010.17,0004.67,0003.98
2022-12-08 09:16:00,,0823.2,5.01,0.00,21.9,20.4,00.0,30.9,23.6,12.2,0000.0,0010.05,0004.59,0003.94
2022-12-08 09:17:00,,0823.2,4.99,0.00,21.9,20.4,00.0,30.9,23.7,12.2,0000.0,0009.99,0004.49,0003.91
2022-12-08 09:18:00,,0823.2,5.00,0.00,21.9,20.7,00.0,30.9,23.7,12.3,0000.0,0009.73,0004.45,0003.89
2022-12-08 09:19:00,,0823.2,5.01,0.00,22.0,21.5,00.0,30.8,23.9,12.2,0000.0,0010.36,0004.44,0003.85
2022-12-08 09:20:00,,0823.2,4.99,0.00,22.1,22.0,00.0,30.9,24.1,12.2,0000.0,0010.69,0004.44,0003.83
2022-12-08 09:21:00,,0823.3,4.99,0.00,22.1,21.7,00.0,30.9,24.1,12.1,0000.0,0010.80,0004.47,0003.84
2022-12-08 09:22:00,,0823.3,5.01,0.00,22.1,21.5,00.0,30.9,24.0,12.1,0000.0,0011.22,0004.53,0003.88
2022-12-08 09:23:00,,0823.2,5.00,0.00,22.1,21.3,00.0,31.0,24.0,12.1,0000.0,0012.06,0004.56,0003.92
2022-12-08 09:24:00,,0823.2,5.00,0.00,22.1,21.2,00.0,31.0,24.0,12.2,0000.0,0012.82,0004.55,0003.92
2022-12-08 09:25:00,,0823.2,5.00,0.00,22.1,21.1,00.0,31.0,24.0,12.3,0000.0,0012.88,0004.55,0003.91
2022-12-08 09:26:00,,0823.3,5.00,0.00,22.1,21.0,00.0,31.0,24.0,12.1,0000.0,0011.94,0004.48,0003.87
2022-12-08 09:27:00,,0823.3,5.01,0.00,22.1,21.0,00.0,31.0,24.0,12.1,0000.0,0011.85,0004.44,0003.84
2022-12-08 09:28:00,,0823.2,5.01,0.00,22.1,20.9,00.0,31.0,24.0,12.2,0000.0,0011.69,0004.42,0003.83
2022-12-08 09:29:00,,0823.2,5.01,0.00,22.1,20.9,00.0,31.0,24.0,12.2,0000.0,0011.87,0004.46,0003.83
2022-12-08 09:30:00,,0823.2,4.99,0.00,22.1,20.9,00.0,31.0,24.0,12.2,0000.0,0011.33,0004.49,0003.83
2022-12-08 09:31:00,,0823.1,4.99,0.00,22.1,20.8,00.0,31.0,24.0,12.2,0000.0,0010.85,0004.44,0003.82
2022-12-08 09:32:00,,0823.2,5.01,0.00,22.1,20.8,00.0,31.0,24.0,12.2,0000.0,0010.69,0004.39,0003.81
2022-12-08 09:33:00,,0823.1,5.00,0.00,22.1,20.8,00.0,31.0,24.0,12.2,0000.0,0010.50,0004.34,0003.77
2022-12-08 09:34:00,,0823.2,5.00,0.00,22.1,20.8,00.0,31.0,24.0,12.2,0000.0,0010.90,0004.32,0003.75
2022-12-08 09:35:00,,0823.2,5.00,0.00,22.1,20.8,00.0,31.0,24.0,12.2,0000.0,0010.16,0004.29,0003.72
2022-12-08 09:36:00,,0823.3,4.98,0.00,22.1,20.9,00.0,31.0,24.0,12.2,0000.0,0009.86,0004.31,0003.72
2022-12-08 09:37:00,,0823.3,5.00,0.00,22.1,20.9,00.0,31.0,24.0,12.2,0000.0,0010.29,0004.34,0003.75
2022-12-08 09:38:00,,0823.3,5.00,0.00,22.1,20.9,00.0,31.0,24.0,12.2,0000.0,0010.34,0004.37,0003.77
2022-12-08 09:39:00,,0823.3,5.00,0.00,22.1,20.8,00.0,31.0,24.0,12.2,0000.0,0010.63,0004.39,0003.76
2022-12-08 09:40:00,,0823.3,5.00,0.00,22.1,20.8,00.0,31.0,24.0,12.2,0000.0,0010.85,0004.35,0003.75
2022-12-08 09:41:00,,0823.3,4.99,0.00,22.1,20.8,00.0,31.0,24.0,12.3,0000.0,0010.99,0004.28,0003.73
2022-12-08 09:42:00,,0823.3,5.00,0.00,22.1,20.8,00.0,31.0,23.9,12.3,0000.0,0010.99,0004.26,0003.71
2022-12-08 09:43:00,,0823.4,4.99,0.00,22.1,20.8,00.0,31.0,24.0,12.3,0000.0,0010.94,0004.25,0003.69
2022-12-08 09:44:00,,0823.4,5.00,0.00,22.1,20.8,00.0,31.0,23.9,12.3,0000.0,0010.55,0004.25,0003.67
2022-12-08 09:45:00,,0823.4,5.01,0.00,22.1,20.8,00.0,31.0,23.9,12.3,0000.0,0009.47,0004.20,0003.66
2022-12-08 09:46:00,,0823.4,5.00,0.00,22.1,20.8,00.0,31.0,23.9,12.3,0000.0,0010.06,0004.18,0003.65
2022-12-08 09:47:00,,0823.3,5.00,0.00,22.1,20.8,00.0,31.0,23.9,12.3,0000.0,0010.23,0004.16,0003.64
2022-12-08 09:48:00,,0823.3,5.00,0.00,22.1,20.8,00.0,31.0,23.9,12.3,0000.0,0010.14,0004.16,0003.63
2022-12-08 09:49:00,,0823.4,5.00,0.00,22.1,20.7,00.0,31.0,23.8,12.3,0000.0,0010.30,0004.17,0003.61
2022-12-08 09:50:00,,0823.3,5.00,0.00,22.1,20.7,00.0,31.0,23.9,12.3,0000.0,0010.11,0004.11,0003.59
2022-12-08 09:51:00,,0823.3,5.00,0.00,22.1,20.7,00.0,31.0,23.9,12.3,0000.0,0010.02,0004.12,0003.59
2022-12-08 09:52:00,,0823.4,5.00,0.00,22.1,21.1,00.0,30.9,24.0,12.3,0000.0,0010.53,0004.16,0003.62
2022-12-08 09:53:00,,0823.4,5.00,0.00,22.2,22.0,00.0,30.9,24.2,12.2,0000.0,0010.98,0004.21,0003.64
2022-12-08 09:54:00,,0823.4,5.00,0.00,22.3,22.1,00.0,31.0,24.3,12.1,0000.0,0011.16,0004.25,0003.67
2022-12-08 09:55:00,,0823.4,4.99,0.00,22.3,21.9,00.0,31.0,24.3,12.0,0000.0,0011.58,0004.29,0003.72
2022-12-08 09:56:00,,0823.4,5.00,0.00,22.3,21.7,00.0,31.1,24.2,12.0,0000.0,0011.52,0004.37,0003.77
2022-12-08 09:57:00,,0823.4,5.00,0.00,22.3,21.5,00.0,31.1,24.2,12.0,0000.0,0011.38,0004.52,0003.84
2022-12-08 09:58:00,,0823.3,5.00,0.00,22.3,21.3,00.0,31.1,24.2,12.0,0000.0,0011.98,0004.65,0003.93
2022-12-08 09:59:00,,0823.3,5.00,0.00,22.3,21.2,00.0,31.1,24.2,12.0,0000.0,0012.33,0004.76,0004.01
